Location: Zagreb
(45.8000°N, 16.0000°E)
Time: 14:49:17
(UTC+02:00)

Vanguard 1 - Pass Details

Date: 10 August 2022
Orbit: 649 x 3832 km, 34.2° (Epoch: 25 September)

Event Time Altitude Azimuth Distance (km) Brightness Sun altitude
Rises 03:22:58 0° 198° (SSW) 5,453 - -20.8°
Reaches altitude 10° 03:26:51 10° 186° (S) 4,889 - -20.4°
Exits shadow 03:28:21 14° 181° (S) 4,730 13.1 -20.2°
Maximum altitude 03:38:43 28° 135° (SE) 4,636 13.4 -19.1°
Drops below altitude 10° 03:55:03 10° 87° (E) 6,841 15.0 -17.2°
Sets 04:01:51 0° 78° (ENE) 7,978 15.7 -16.3°
